[[{"header":{"parameterUnit":"m.s-1","parameterCategory":1,"la1":30.2991,"la2":30.254,"lo1":-89.0895,"lo2":-89.0444,"dy":0.0017,"dx":0.0017,"nx":28,"ny":28,"refTime":"2024-04-12T21:00:00:Z","depth":0,"parameterNumber":2,"parameterNumberName":"U-component_of_WINDS"},"data":[0,0,0,0,0,0,0,0,0,0,0,0,0,0,0,0,0,0,0,0,0,0,0,0,0,0,0,0,0,0,0,0,0,0,0,0,0,0,0,0,0,0,0,0,0,0,0,0,0,0,0,0,0,0,0,0,0,0,-0.781,-0.7809,0,-0.7761,-0.776,-0.776,-0.7717,-0.7717,-0.7716,-0.7716,-0.7666,-0.7665,-0.7664,0,0,0,0,0,0,0,0,0,0,0,0,0,-0.7868,-0.7867,-0.781,-0.7809,-0.7809,-0.7761,-0.776,-0.776,-0.7717,-0.7717,-0.7716,-0.7716,-0.7666,-0.7665,-0.7664,0,0,0,0,0,0,0,0,0,0,0,0,0,-0.7833,-0.7867,-0.781,-0.7782,-0.7779,-0.7761,-0.776,-0.776,-0.7717,-0.7717,-0.7716,-0.7715,-0.7667,-0.7665,-0.7664,-0.7671,0,0,-0.766,-0.7659,0,0,0,0,0,0,0,0,-0.7835,-0.7831,-0.7786,-0.7784,-0.778,-0.7744,-0.7762,-0.773,-0.7718,-0.7741,-0.7716,-0.7715,-0.7693,-0.7689,-0.7682,-0.7668,-0.7666,-0.766,-0.7659,-0.7659,-0.7658,0,0,0,0,0,0,0,-0.7838,-0.7833,-0.779,-0.7786,-0.7782,-0.7772,-0.7766,-0.7756,-0.7721,-0.7739,-0.7735,-0.773,-0.7691,-0.7683,-0.768,-0.7665,-0.766,-0.7659,-0.7658,-0.7657,-0.7656,-0.7657,0,0,0,0,0,0,-0.7844,-0.7835,-0.7792,-0.7789,-0.7806,-0.7772,-0.7765,-0.7757,-0.7721,-0.7715,-0.7731,-0.7728,-0.7686,-0.7682,-0.7678,-0.7684,-0.7659,-0.7657,-0.7657,-0.7656,-0.7656,-0.7657,0,0,0,0,0,0,-0.7846,-0.7841,-0.7794,-0.7811,-0.7804,-0.7771,-0.7762,-0.7756,-0.7748,-0.7716,-0.7709,-0.7729,-0.7685,-0.768,-0.7673,-0.7682,-0.7657,-0.7656,-0.7655,-0.7656,-0.7657,-0.7696,0,0,0,0,0,0,-0.7847,-0.7841,-0.7843,-0.7812,-0.7804,-0.7789,-0.7763,-0.7756,-0.7746,-0.7742,-0.7712,-0.7707,-0.7684,-0.7675,-0.7672,-0.7679,-0.7654,-0.7654,-0.7655,-0.7656,-0.7694,-0.7698,-0.7702,0,0,0,0,0,-0.785,-0.7856,-0.7843,-0.7838,-0.7805,-0.779,-0.7785,-0.7759,-0.7747,-0.7749,-0.7728,-0.7707,-0.7682,-0.7675,-0.7671,-0.7678,-0.7653,-0.7655,-0.7656,-0.7692,-0.7697,-0.7702,0,0,0,0,0,0,-0.7889,-0.7851,-0.7837,-0.7833,-0.7815,-0.7783,-0.7784,-0.7766,-0.7751,-0.7748,-0.7716,-0.771,-0.7707,-0.7692,-0.7685,-0.7683,-0.7665,-0.7666,-0.7693,-0.7698,-0.7702,-0.7706,-0.7653,0,0,0,0,0,-0.7897,-0.7888,-0.7855,-0.7855,-0.7847,-0.7817,-0.781,-0.7791,-0.7771,-0.7763,-0.7742,-0.7724,-0.7711,-0.7704,-0.7691,-0.7692,-0.7685,-0.7695,-0.7699,-0.7703,-0.7704,-0.7704,-0.7708,-0.7663,-0.7663,-0.7663,0,0,-0.7914,-0.7892,-0.7888,-0.7862,-0.7846,-0.7838,-0.7811,-0.7803,-0.7796,-0.7762,-0.7754,-0.7738,-0.7716,-0.7713,-0.7711,-0.77,-0.7715,-0.7705,-0.7708,-0.7707,-0.7706,-0.771,-0.7714,-0.7664,-0.7664,-0.7664,0,0,-0.794,-0.7923,-0.7921,-0.7906,-0.7882,-0.7862,-0.7862,-0.7833,-0.7821,-0.7813,-0.7787,-0.778,-0.7759,-0.7744,-0.7734,-0.7757,-0.7738,-0.7754,-0.7776,-0.7776,-0.778,-0.7783,-0.7791,-0.7795,-0.7755,-0.7755,-0.7755,0,-0.7964,-0.795,-0.7922,-0.7916,-0.7906,-0.7875,-0.7874,-0.786,-0.7833,-0.7827,-0.7817,-0.7791,-0.7774,-0.7767,-0.7773,-0.7766,-0.7765,-0.7757,-0.7781,-0.7784,-0.7787,-0.7794,-0.7798,-0.7757,-0.7757,-0.7757,-0.7757,0,-0.7981,-0.7971,-0.7973,-0.7948,-0.7938,-0.7934,-0.7907,-0.79,-0.7884,-0.7866,-0.7858,-0.7837,-0.7819,-0.7817,-0.78,-0.7808,-0.7803,-0.7787,-0.7768,-0.7794,-0.78,-0.7803,-0.776,-0.7759,-0.7759,-0.7758,0,0,-0.8029,-0.799,-0.7991,-0.798,-0.7952,-0.7945,-0.794,-0.7923,-0.7919,-0.7902,-0.7897,-0.7882,-0.7867,-0.7856,-0.7838,-0.7838,-0.7859,-0.7822,-0.7822,-0.783,-0.7868,-0.788,-0.7883,-0.7846,-0.7847,-0.7847,-0.787,0,-0.8051,-0.804,-0.8016,-0.8013,-0.8004,-0.7976,-0.7972,-0.7955,-0.7939,-0.793,-0.7912,-0.7901,-0.7883,-0.7876,-0.7876,-0.7856,-0.7866,-0.7854,-0.7842,-0.7842,-0.7848,-0.7887,-0.7899,-0.7921,-0.7872,-0.7873,-0.7873,0,-0.8074,-0.8059,-0.8055,-0.8029,-0.8025,-0.8022,-0.8005,-0.7997,-0.7977,-0.7965,-0.7954,-0.7934,-0.7928,-0.7911,-0.7903,-0.7896,-0.789,-0.788,-0.788,-0.7878,-0.7859,-0.7885,-0.7928,-0.7931,-0.7877,-0.7876,-0.7876,0,-0.811,-0.8089,-0.8084,-0.8076,-0.8045,-0.8044,-0.8031,-0.8011,-0.8003,-0.7989,-0.7983,-0.7969,-0.7961,-0.795,-0.7927,-0.7917,-0.7922,-0.7903,-0.7912,-0.7913,-0.7914,-0.7914,-0.7956,-0.7911,-0.7911,-0.7911,-0.7911,0,-0.8136,-0.8135,-0.81,-0.8097,-0.8096,-0.8069,-0.8068,-0.8053,-0.8036,-0.803,-0.8005,-0.8,-0.797,-0.7962,-0.7944,-0.7941,-0.7937,-0.7928,-0.7923,-0.793,-0.7931,-0.7925,-0.7923,-0.7912,-0.7911,-0.7911,-0.7911,0,-0.8176,-0.8152,-0.8145,-0.8117,-0.811,-0.8111,-0.8087,-0.8083,-0.8066,-0.8059,-0.8056,-0.8029,-0.8019,-0.7995,-0.7978,-0.7966,-0.7967,-0.7958,-0.7974,-0.797,-0.7982,-0.7981,-0.8021,-0.8025,-0.7977,-0.7978,-0.7978,0,-0.8194,-0.8193,-0.8165,-0.8159,-0.8147,-0.8139,-0.813,-0.8104,-0.8097,-0.8076,-0.8075,-0.8063,-0.8051,-0.8036,-0.8015,-0.8003,-0.7993,-0.8008,-0.7991,-0.7999,-0.7994,-0.7994,-0.7994,-0.8012,-0.8012,-0.8013,-0.8013,0,-0.8229,-0.8218,-0.8207,-0.8192,-0.8183,-0.817,-0.8156,-0.8153,-0.8124,-0.8117,-0.8106,-0.8098,-0.8081,-0.8069,-0.8054,-0.8041,-0.8023,-0.8019,-0.8021,-0.8027,-0.8036,-0.8032,-0.7984,-0.8018,-0.8018,-0.8017,-0.8017,-0.8017,-0.8258,-0.8256,-0.8237,-0.8226,-0.8212,-0.82,-0.8196,-0.8179,-0.8169,-0.8153,-0.8139,-0.8129,-0.8112,-0.8089,-0.8078,-0.807,-0.8061,-0.8063,-0.8064,-0.8065,-0.8068,-0.8038,-0.8067,-0.8067,-0.8067,-0.8067,-0.8067,0,-0.8293,-0.8279,-0.8269,-0.825,-0.8242,-0.8226,-0.821,-0.8204,-0.8196,-0.8181,-0.8171,-0.8159,-0.8148,-0.8127,-0.8114,-0.8112,-0.8104,-0.811,-0.811,-0.8107,-0.8077,-0.8077,-0.8117,-0.8117,-0.8117,-0.8117,-0.8117,-0.8117,-0.8309,-0.8305,-0.8292,-0.8281,-0.8267,-0.8258,-0.825,-0.8239,-0.8227,-0.8215,-0.8206,-0.8192,-0.8175,-0.8161,-0.8151,-0.8145,-0.8141,-0.815,-0.8142,-0.8114,-0.8109,-0.8105,-0.8104,-0.815,-0.815,-0.8173,-0.8173,-0.8173]},{"header":{"parameterUnit":"m.s-1","parameterCategory":1,"la1":30.2991,"la2":30.254,"lo1":-89.0895,"lo2":-89.0444,"dy":0.0017,"dx":0.0017,"nx":28,"ny":28,"refTime":"2024-04-12T21:00:00:Z","depth":0,"parameterNumber":3,"parameterNumberName":"V-component_of_WINDS"},"data":[0,0,0,0,0,0,0,0,0,0,0,0,0,0,0,0,0,0,0,0,0,0,0,0,0,0,0,0,0,0,0,0,0,0,0,0,0,0,0,0,0,0,0,0,0,0,0,0,0,0,0,0,0,0,0,0,0,0,3.946,3.946,0,3.9453,3.9453,3.9453,3.9469,3.9469,3.947,3.947,3.9459,3.9459,3.9458,0,0,0,0,0,0,0,0,0,0,0,0,0,3.9485,3.9485,3.946,3.946,3.946,3.9453,3.9453,3.9453,3.9469,3.9469,3.947,3.947,3.946,3.9459,3.9458,0,0,0,0,0,0,0,0,0,0,0,0,0,3.9476,3.9485,3.946,3.9467,3.9468,3.9453,3.9453,3.9453,3.9468,3.9469,3.947,3.9471,3.946,3.9459,3.9458,3.9435,0,0,3.9454,3.9454,0,0,0,0,0,0,0,0,3.9476,3.9475,3.9466,3.9467,3.9467,3.9463,3.9458,3.9446,3.9468,3.9468,3.947,3.9471,3.946,3.9459,3.9455,3.9434,3.9434,3.9454,3.9453,3.9453,3.9452,0,0,0,0,0,0,0,3.9477,3.9475,3.9457,3.9466,3.9467,3.947,3.9469,3.9456,3.9459,3.9468,3.9469,3.9468,3.946,3.9456,3.9455,3.9434,3.9454,3.9453,3.9452,3.9452,3.9394,3.9393,0,0,0,0,0,0,3.9477,3.9476,3.9458,3.9457,3.9474,3.9469,3.9468,3.9463,3.946,3.946,3.9468,3.9469,3.9458,3.9456,3.9455,3.9429,3.9453,3.9452,3.9451,3.9395,3.9394,3.9393,0,0,0,0,0,0,3.9478,3.9475,3.9458,3.9467,3.9465,3.9468,3.9462,3.9463,3.9459,3.9459,3.946,3.9464,3.9459,3.9456,3.944,3.9428,3.9451,3.945,3.9396,3.9394,3.9393,3.9376,0,0,0,0,0,0,3.9478,3.9476,3.9467,3.9466,3.9464,3.9444,3.9461,3.9462,3.9458,3.9459,3.9456,3.9456,3.9459,3.9442,3.9439,3.9427,3.9449,3.9397,3.9395,3.9394,3.9377,3.9374,3.9371,0,0,0,0,0,3.9479,3.9462,3.9467,3.9465,3.9454,3.9443,3.9442,3.9447,3.9456,3.9448,3.9448,3.9456,3.943,3.944,3.9437,3.9425,3.9398,3.9396,3.9394,3.9379,3.9374,3.9371,0,0,0,0,0,0,3.946,3.9462,3.9468,3.945,3.9446,3.9446,3.9436,3.9442,3.9435,3.9437,3.9443,3.9442,3.9424,3.9423,3.9434,3.9403,3.9415,3.9413,3.9405,3.9401,3.9398,3.9399,3.9448,0,0,0,0,0,3.9454,3.9446,3.9447,3.9431,3.9429,3.9433,3.9428,3.9432,3.9429,3.9427,3.9426,3.9421,3.9412,3.9406,3.9398,3.9377,3.9376,3.9367,3.9364,3.9361,3.9359,3.9348,3.9344,3.9387,3.9387,3.9387,0,0,3.9441,3.9441,3.9435,3.9428,3.9426,3.9416,3.9431,3.9421,3.9414,3.9425,3.941,3.9409,3.9404,3.9386,3.9377,3.9384,3.9347,3.9359,3.9357,3.9356,3.9346,3.9342,3.9339,3.9385,3.9386,3.9386,0,0,3.9413,3.9412,3.9399,3.9397,3.9394,3.9397,3.9394,3.9392,3.9392,3.9378,3.9386,3.9377,3.9361,3.9358,3.9354,3.9325,3.9332,3.9322,3.9306,3.9296,3.9292,3.9289,3.928,3.9276,3.932,3.932,3.932,0,3.9397,3.9385,3.9391,3.9381,3.9377,3.9388,3.9375,3.9372,3.9366,3.9363,3.937,3.9351,3.9348,3.9329,3.9323,3.9319,3.9315,3.9323,3.9292,3.929,3.9287,3.9278,3.9274,3.9318,3.9319,3.9319,3.9319,0,3.9366,3.9357,3.9347,3.9342,3.9337,3.9325,3.9329,3.9323,3.9328,3.9329,3.9314,3.9311,3.9303,3.9298,3.9302,3.928,3.9284,3.9292,3.9305,3.9282,3.9273,3.927,3.9317,3.9317,3.9318,3.9318,0,0,3.9327,3.9326,3.9323,3.9321,3.9319,3.9312,3.9299,3.9293,3.9288,3.9283,3.9273,3.926,3.9267,3.9262,3.9266,3.9256,3.9235,3.9265,3.9265,3.9261,3.9211,3.9206,3.9202,3.9239,3.9238,3.9238,3.9212,0,3.93,3.9281,3.9287,3.9268,3.926,3.927,3.9259,3.9256,3.9257,3.925,3.925,3.9241,3.9251,3.9248,3.9239,3.9239,3.9225,3.9241,3.923,3.9229,3.9232,3.9198,3.9193,3.9169,3.9209,3.9208,3.9208,0,3.9267,3.9262,3.9243,3.9243,3.9239,3.923,3.9225,3.9217,3.9214,3.9215,3.921,3.9216,3.9203,3.9216,3.9199,3.921,3.9205,3.9205,3.9204,3.9204,3.9218,3.9198,3.9161,3.9158,3.9202,3.9203,3.9203,0,3.9242,3.923,3.9218,3.9216,3.9215,3.9208,3.9207,3.9205,3.92,3.9195,3.9192,3.9184,3.918,3.9174,3.9177,3.9186,3.916,3.9172,3.9161,3.9161,3.9156,3.9156,3.9119,3.9151,3.9151,3.9151,3.9151,0,3.9212,3.92,3.9207,3.9199,3.9185,3.9191,3.9177,3.9177,3.9175,3.9167,3.9174,3.9166,3.917,3.9162,3.9164,3.915,3.9148,3.9148,3.9149,3.9148,3.9149,3.9146,3.9148,3.915,3.915,3.915,3.9151,0,3.9182,3.9186,3.9173,3.9173,3.9173,3.9163,3.9163,3.9155,3.9157,3.9146,3.9144,3.9146,3.9137,3.9139,3.9129,3.913,3.9113,3.9115,3.9115,3.9116,3.9104,3.9106,3.9065,3.906,3.9095,3.9094,3.9094,0,3.9164,3.9155,3.9155,3.915,3.9149,3.9142,3.9138,3.9143,3.9138,3.9134,3.9127,3.9119,3.9113,3.9098,3.9098,3.909,3.9093,3.9079,3.9092,3.9091,3.9094,3.9095,3.9094,3.9077,3.9076,3.9076,3.9076,0,3.9131,3.9134,3.9128,3.9123,3.9118,3.9114,3.9111,3.9107,3.9111,3.9105,3.9097,3.9093,3.9083,3.9075,3.9068,3.9066,3.9072,3.9072,3.9069,3.9068,3.9069,3.907,3.9109,3.9073,3.9073,3.9073,3.9073,3.9074,3.9107,3.91,3.9099,3.9093,3.9091,3.9088,3.9081,3.9082,3.9075,3.9069,3.9071,3.9062,3.9059,3.905,3.9047,3.9039,3.9045,3.904,3.9039,3.9038,3.9037,3.9069,3.9038,3.9038,3.9038,3.9038,3.9038,0,3.9076,3.9076,3.907,3.9066,3.906,3.9067,3.9063,3.9059,3.9051,3.9047,3.9042,3.9032,3.9024,3.9024,3.9016,3.901,3.9013,3.9008,3.9009,3.9009,3.9033,3.9037,3.9007,3.9007,3.9007,3.9007,3.9007,3.9007,3.9059,3.9048,3.905,3.9038,3.9038,3.9029,3.9027,3.9024,3.9022,3.9011,3.9005,3.9005,3.9003,3.8995,3.8989,3.8988,3.8986,3.8981,3.8981,3.9004,3.9007,3.901,3.9014,3.898,3.898,3.8959,3.8958,3.8958]}]]